FW6154 Weather Reports


Display with metric or nautical units.
time (UTC)temp
F
wind
direction
speed
MPH
gust
MPH
rain 1hr
in
rain 24hr
in
rain mn
in
humidity
%
barometer
mb
20260508164828 46 270 0.0 0.0 0.00 0.12 0.05 62 1003.8
20260508164322 46 293 0.0 0.0 0.00 0.12 0.05 63 1003.8
20260508163806 46 248 0.0 0.0 0.00 0.12 0.05 63 1003.9
20260508163255 46 293 0.0 0.0 0.00 0.12 0.05 63 1003.7
20260508162746 46 293 0.0 0.0 0.00 0.12 0.05 63 1003.8
20260508161724 46 270 0.0 0.0 0.00 0.12 0.05 65 1003.9
20260508161215 45 248 0.0 0.0 0.00 0.12 0.05 64 1004.2
20260508160705 45 270 0.0 0.0 0.00 0.12 0.05 65 1004.1
20260508160155 45 248 0.0 0.0 0.00 0.12 0.05 64 1004.6
20260508154624 44 270 0.0 0.0 0.00 0.12 0.05 65 1004.7
20260508154115 45 293 0.0 0.0 0.00 0.12 0.05 66 1004.6
20260508153605 44 203 0.0 0.0 0.00 0.12 0.05 66 1004.5
20260508153056 44 270 0.0 0.0 0.00 0.12 0.05 65 1004.5
20260508152545 44 248 0.0 0.0 0.00 0.12 0.05 67 1004.5
20260508152034 44 270 0.0 0.0 0.00 0.12 0.05 66 1004.4
20260508151523 43 315 0.0 0.0 0.00 0.12 0.05 67 1004.4
20260508151013 44 248 0.0 0.0 0.00 0.12 0.05 67 1004.3
20260508150509 44 270 0.0 0.0 0.00 0.12 0.05 67 1004.5
20260508145953 44 315 0.0 0.0 0.00 0.12 0.05 68 1004.6
20260508145444 44 225 0.0 0.0 0.00 0.12 0.05 69 1004.6
20260508144932 43 158 0.0 0.0 0.00 0.12 0.05 69 1004.6
20260508144423 43 248 0.0 0.0 0.00 0.12 0.05 70 1004.5
20260508143402 42 203 0.0 0.0 0.00 0.12 0.05 71 1004.8
20260508142853 42 158 0.0 0.0 0.00 0.12 0.05 72 1004.5
20260508141832 42 248 0.0 0.0 0.00 0.12 0.05 72 1004.6
20260508141325 42 270 0.0 0.0 0.00 0.12 0.05 73 1004.5
20260508140811 42 248 0.0 0.0 0.00 0.12 0.05 72 1004.5
20260508140302 41 270 0.0 0.0 0.00 0.12 0.05 73 1004.4
20260508135751 41 225 0.0 0.0 0.00 0.12 0.05 73 1004.5
20260508134732 41 248 0.0 0.0 0.00 0.12 0.05 74 1004.4
20260508133201 41 248 0.0 0.0 0.00 0.12 0.05 74 1004.4
20260508132651 41 270 0.0 0.0 0.00 0.12 0.05 73 1004.5
20260508132141 41 293 0.0 0.0 0.00 0.12 0.05 74 1004.3
20260508131632 41 293 0.0 0.0 0.00 0.12 0.05 73 1004.5
20260508131121 41 135 0.0 0.0 0.00 0.12 0.05 75 1004.6
20260508130100 41 135 0.0 0.0 0.00 0.12 0.05 75 1004.5
20260508125552 40 270 0.0 0.0 0.00 0.12 0.05 75 1004.7
20260508124531 41 203 0.0 0.0 0.00 0.12 0.05 76 1004.4
20260508123510 40 293 0.0 0.0 0.00 0.12 0.05 75 1004.3
20260508123000 41 270 0.0 0.0 0.00 0.12 0.05 76 1004.1
20260508122452 41 203 0.0 0.0 0.00 0.12 0.05 76 1004.0
20260508121939 41 270 0.0 0.0 0.00 0.12 0.05 76 1004.0
20260508121429 41 270 0.0 0.0 0.00 0.12 0.05 77 1004.0
20260508120919 41 225 0.0 0.0 0.00 0.12 0.05 77 1004.0
20260508120413 40 293 0.0 0.0 0.00 0.12 0.05 77 1004.0
20260508115903 40 225 0.0 0.0 0.00 0.12 0.05 77 1004.0
20260508115348 40 225 0.0 0.0 0.00 0.12 0.05 77 1004.0
20260508114841 40 225 0.0 0.0 0.00 0.12 0.05 78 1004.2
20260508114330 41 315 0.0 0.0 0.00 0.12 0.05 79 1004.0
20260508113819 41 248 0.0 0.0 0.00 0.12 0.05 79 1003.8
20260508113309 41 248 0.0 0.0 0.00 0.12 0.05 79 1004.0
20260508112758 41 203 0.0 0.0 0.00 0.12 0.05 79 1004.2
20260508112249 41 270 0.0 0.0 0.00 0.12 0.05 79 1004.0
20260508111228 41 248 0.0 0.0 0.00 0.12 0.05 80 1004.1
20260508110211 41 293 0.0 0.0 0.00 0.12 0.05 79 1003.9
20260508105657 41 158 0.0 0.0 0.00 0.12 0.05 80 1004.0
20260508105149 41 225 0.0 0.0 0.00 0.12 0.05 80 1003.8
20260508104637 41 225 0.0 0.0 0.00 0.12 0.05 80 1003.8
20260508103107 41 270 0.0 0.0 0.00 0.13 0.05 80 1003.7
20260508102558 41 158 0.0 0.0 0.00 0.13 0.05 80 1003.9
20260508102058 41 180 0.0 0.0 0.00 0.13 0.05 80 1003.8
20260508101026 41 248 0.0 0.0 0.00 0.13 0.05 80 1003.7
20260508100006 41 158 0.0 0.0 0.00 0.13 0.05 79 1003.6
20260508095456 41 203 0.0 0.0 0.00 0.13 0.05 80 1003.8
20260508094946 42 203 0.0 0.0 0.00 0.13 0.05 79 1003.7
20260508094433 42 293 0.0 0.0 0.00 0.13 0.05 79 1003.7
20260508093925 41 248 0.0 0.0 0.00 0.13 0.05 80 1003.6
20260508093418 42 113 0.0 0.0 0.00 0.13 0.05 80 1003.7
20260508092358 42 270 0.0 0.0 0.00 0.13 0.05 80 1003.6
20260508091847 41 270 0.0 0.0 0.00 0.13 0.05 80 1003.6
20260508091336 41 203 0.0 0.0 0.00 0.13 0.05 81 1003.4
20260508090825 41 248 0.0 0.0 0.00 0.13 0.05 81 1003.6
20260508090314 41 203 0.0 0.0 0.00 0.13 0.05 81 1003.5
20260508085806 41 248 0.0 0.0 0.00 0.13 0.05 83 1003.5
20260508085256 41 180 0.0 0.0 0.00 0.13 0.05 85 1003.5
20260508084746 41 248 0.0 0.0 0.00 0.13 0.05 88 1003.6
20260508084234 40 203 0.0 0.0 0.00 0.13 0.05 90 1003.4
20260508083724 40 225 0.0 0.0 0.00 0.13 0.05 92 1003.8
20260508083215 40 225 0.0 0.0 0.00 0.13 0.05 95 1003.9
20260508082704 39 225 0.0 0.0 0.00 0.13 0.05 96 1003.7
20260508082154 39 248 0.0 0.0 0.00 0.13 0.05 96 1003.9
20260508081645 39 225 0.0 0.0 0.00 0.13 0.05 96 1004.0
20260508081133 39 248 0.0 0.0 0.00 0.13 0.05 95 1003.9
20260508080623 39 135 0.0 0.0 0.00 0.13 0.05 95 1003.8
20260508075605 39 203 0.0 0.0 0.00 0.13 0.05 95 1003.9
20260508075058 39 225 0.0 0.0 0.00 0.13 0.05 95 1003.9
20260508074547 40 180 0.0 0.0 0.00 0.13 0.05 95 1003.8
20260508074033 40 270 0.0 0.0 0.00 0.13 0.05 95 1004.0
20260508073523 40 225 0.0 0.0 0.00 0.13 0.05 95 1004.0
20260508072502 40 225 0.0 0.0 0.00 0.13 0.05 95 1003.8
20260508071953 40 315 0.0 0.0 0.01 0.13 0.05 95 1003.9
20260508071445 40 180 0.0 0.0 0.01 0.13 0.05 95 1004.0
20260508070933 40 158 0.0 0.0 0.01 0.13 0.05 95 1004.0
20260508070423 40 203 0.0 0.0 0.01 0.13 0.05 95 1004.2
20260508065913 40 270 0.0 0.0 0.01 0.13 0.05 95 1004.1
20260508065403 40 225 0.0 0.0 0.01 0.13 0.05 95 1004.0
20260508064853 40 293 0.0 0.0 0.01 0.13 0.05 95 1004.4
20260508064342 40 203 0.0 0.0 0.01 0.13 0.05 95 1004.4
20260508063324 41 225 0.0 0.0 0.01 0.13 0.05 95 1004.1
20260508062813 41 113 0.0 0.0 0.01 0.13 0.05 95 1004.3
20260508062305 41 158 0.0 0.0 0.00 0.12 0.04 95 1004.1
20260508061756 41 225 0.0 0.0 0.00 0.12 0.04 95 1004.2
20260508061247 41 270 0.0 0.0 0.00 0.12 0.04 95 1004.2
20260508060732 41 248 0.0 0.0 0.00 0.12 0.04 95 1004.5
20260508060222 41 248 0.0 0.0 0.00 0.12 0.04 95 1004.7
20260508055711 41 248 0.0 0.0 0.00 0.12 0.04 95 1004.7
20260508055201 41 270 0.0 0.0 0.00 0.12 0.04 95 1004.8
20260508054651 41 248 0.0 0.0 0.01 0.12 0.04 95 1004.7
20260508054141 41 158 0.0 0.0 0.01 0.12 0.04 95 1004.6
20260508053631 41 315 0.0 0.0 0.01 0.12 0.04 95 1004.4
20260508053120 42 270 0.0 0.0 0.01 0.12 0.04 94 1004.6
20260508052610 42 135 0.0 0.0 0.01 0.12 0.04 94 1004.7
20260508052100 42 248 0.0 0.0 0.01 0.12 0.04 94 1004.7
20260508051042 42 270 0.0 0.0 0.01 0.14 0.04 94 1004.5
20260508050533 42 135 0.0 0.0 0.01 0.14 0.04 94 1004.8
20260508050020 42 248 0.0 0.0 0.01 0.14 0.04 94 1004.5
20260508045510 42 248 0.0 0.0 0.02 0.14 0.04 94 1004.9
20260508045002 42 225 0.0 0.0 0.01 0.13 0.02 94 1004.6
20260508043939 42 248 0.0 0.0 0.01 0.13 0.02 93 1004.6
20260508042919 42 270 0.0 0.0 0.02 0.13 0.02 92 1004.6
20260508042410 42 270 0.0 0.0 0.02 0.13 0.02 92 1004.6
20260508041349 43 158 0.0 0.0 0.02 0.14 0.02 92 1004.6
20260508040843 43 158 0.0 0.0 0.02 0.14 0.02 92 1004.7
20260508040330 43 270 0.0 0.0 0.02 0.14 0.02 92 1004.6
20260508035820 43 270 0.0 0.0 0.02 0.14 0.02 92 1004.6
20260508034759 43 180 0.0 0.0 0.01 0.13 0.01 92 1004.4
20260508034253 43 45 0.0 0.0 0.01 0.13 0.01 91 1004.4
20260508033737 43 270 0.0 0.0 0.01 0.13 0.01 91 1004.4
20260508033230 43 270 0.0 0.0 0.00 0.12 0.00 91 1004.6
20260508031700 43 203 0.0 0.0 0.00 0.12 0.00 91 1004.3
20260508031156 43 225 0.0 0.0 0.00 0.12 0.00 91 1004.5
20260508030135 43 293 0.0 0.0 0.00 0.12 0.00 90 1004.5
20260508025619 44 203 0.0 0.0 0.00 0.12 0.12 90 1004.6
20260508025111 44 158 0.0 2.0 0.00 0.12 0.12 90 1004.6
20260508024556 44 135 0.0 2.0 0.00 0.12 0.12 89 1004.5
20260508024046 44 293 0.0 0.0 0.00 0.12 0.12 89 1004.5
20260508023540 44 270 0.0 0.0 0.01 0.12 0.12 89 1004.5
20260508022520 43 248 0.0 0.0 0.01 0.12 0.12 89 1004.7
20260508022010 44 203 0.0 0.0 0.01 0.12 0.12 88 1004.8
20260508021500 44 270 0.0 0.0 0.01 0.12 0.12 88 1004.8
20260508020950 44 203 0.0 0.0 0.01 0.12 0.12 89 1005.2
20260508020448 43 225 0.0 0.0 0.01 0.12 0.12 89 1004.8
20260508015932 44 248 0.0 0.0 0.01 0.12 0.12 89 1004.9
20260508014930 43 248 0.0 0.0 0.01 0.12 0.12 90 1004.8
20260508013902 43 315 0.0 0.0 0.01 0.11 0.11 90 1005.0
20260508013335 44 225 0.0 0.0 0.01 0.11 0.11 89 1005.0
20260508012827 44 270 0.0 0.0 0.01 0.11 0.11 88 1005.3
20260508012327 43 248 0.0 2.0 0.01 0.11 0.11 89 1005.4
20260508011843 43 293 0.0 2.0 0.01 0.11 0.11 90 1005.3
20260508011255 43 270 0.0 0.0 0.01 0.11 0.11 90 1005.2
20260508010745 43 293 0.0 0.0 0.01 0.11 0.11 90 1005.5
20260508010239 43 248 0.0 0.0 0.01 0.11 0.11 90 1005.4
20260508005729 43 0 0.0 2.0 0.01 0.11 0.11 89 1005.6
20260508005217 43 180 0.0 2.0 0.02 0.11 0.11 89 1005.6
20260508004704 43 225 0.0 2.0 0.01 0.09 0.09 89 1005.5
20260508003645 42 270 0.0 0.0 0.01 0.09 0.09 90 1005.8
20260508003146 43 293 0.0 0.0 0.01 0.09 0.09 90 1005.8
20260508002626 42 225 0.0 0.0 0.01 0.09 0.09 90 1005.7
20260508002118 42 225 0.0 0.0 0.01 0.09 0.09 90 1005.8
20260508001604 42 248 0.0 0.0 0.02 0.09 0.09 90 1005.8
20260508000544 42 293 0.0 2.0 0.02 0.09 0.09 89 1006.0
20260508000038 42 248 0.0 2.0 0.02 0.09 0.09 89 1005.7
20260507235025 42 158 0.0 2.0 0.01 0.08 0.08 89 1005.6
20260507233445 42 248 0.0 2.0 0.01 0.09 0.08 89 1005.6
20260507232953 42 270 0.0 2.0 0.01 0.09 0.08 89 1005.8
20260507231944 42 270 0.0 2.0 0.01 0.12 0.08 90 1005.6
20260507231408 42 225 0.0 2.0 0.00 0.12 0.07 90 1005.7
20260507230856 42 158 0.0 0.0 0.00 0.12 0.07 90 1005.7
20260507230345 42 203 0.0 2.0 0.01 0.13 0.07 90 1005.7
20260507225832 42 248 0.0 2.0 0.01 0.13 0.07 90 1005.7
20260507225322 43 293 0.0 0.0 0.01 0.13 0.07 91 1005.9
20260507224814 43 248 0.0 2.0 0.01 0.14 0.07 91 1005.8
20260507224305 43 0 0.0 2.0 0.02 0.15 0.07 91 1005.9
20260507223752 43 270 0.0 0.0 0.02 0.18 0.07 91 1005.8
20260507223245 43 270 0.0 6.0 0.02 0.19 0.07 91 1005.8
20260507222736 43 90 1.0 6.0 0.02 0.20 0.07 91 1005.7
20260507222223 44 270 0.0 4.0 0.02 0.21 0.07 92 1006.0
20260507221713 44 203 0.0 0.0 0.02 0.24 0.07 92 1006.0
20260507221205 44 270 0.0 0.0 0.02 0.25 0.07 92 1005.7
20260507220659 44 225 0.0 2.0 0.01 0.25 0.06 91 1005.8
20260507220141 45 270 0.0 2.0 0.01 0.25 0.06 91 1005.5
20260507215630 45 270 0.0 0.0 0.01 0.25 0.06 91 1005.4
20260507215122 45 203 0.0 2.0 0.01 0.25 0.06 91 1005.2
20260507214627 45 248 0.0 2.0 0.00 0.24 0.05 91 1005.2
20260507214109 46 180 0.0 0.0 0.00 0.24 0.05 91 1005.0
20260507213645 46 248 0.0 0.0 0.00 0.24 0.05 91 1004.9
20260507213041 46 158 0.0 0.0 0.00 0.24 0.05 91 1004.6
20260507212531 46 203 0.0 0.0 0.00 0.24 0.05 91 1004.3
20260507212021 46 270 0.0 4.0 0.00 0.25 0.05 91 1004.6
20260507211514 46 203 0.0 4.0 0.00 0.25 0.05 91 1004.3
20260507210959 47 338 0.0 0.0 0.00 0.25 0.05 91 1004.0
20260507210450 47 203 0.0 0.0 0.00 0.26 0.05 91 1004.0
20260507205942 47 293 0.0 2.0 0.00 0.26 0.05 91 1004.0
20260507205438 47 203 0.0 2.0 0.00 0.27 0.05 91 1004.1
20260507204919 47 248 0.0 0.0 0.00 0.27 0.05 91 1004.1
20260507203900 47 270 0.0 0.0 0.00 0.27 0.05 91 1004.0
20260507203349 47 293 0.0 0.0 0.00 0.28 0.05 91 1004.3
20260507202838 47 225 0.0 0.0 0.00 0.28 0.05 91 1004.4
20260507202328 47 248 0.0 0.0 0.00 0.28 0.05 91 1004.3
20260507201820 47 270 0.0 0.0 0.00 0.28 0.05 91 1004.3
20260507201309 47 248 0.0 0.0 0.00 0.28 0.05 91 1004.4
20260507200758 48 180 0.0 0.0 0.00 0.28 0.05 91 1004.4
20260507200249 48 248 0.0 0.0 0.00 0.28 0.05 91 1004.4
20260507195738 48 90 0.0 0.0 0.00 0.30 0.05 91 1004.4
20260507195228 48 270 0.0 0.0 0.00 0.30 0.05 91 1004.3
20260507194716 48 248 0.0 0.0 0.00 0.30 0.05 91 1004.3
20260507194208 48 203 0.0 0.0 0.00 0.30 0.05 91 1004.4
20260507193701 48 315 0.0 0.0 0.00 0.30 0.05 91 1004.4
20260507193149 48 293 0.0 0.0 0.00 0.30 0.05 91 1004.5
20260507192127 49 270 0.0 0.0 0.00 0.30 0.05 91 1004.5
20260507191617 48 180 0.0 0.0 0.00 0.30 0.05 91 1004.6
20260507190601 48 180 0.0 0.0 0.00 0.30 0.05 91 1004.2
20260507190050 48 135 0.0 0.0 0.00 0.30 0.05 91 1004.3
20260507185542 48 248 0.0 0.0 0.00 0.30 0.05 91 1004.5
20260507185027 49 270 0.0 0.0 0.00 0.30 0.05 91 1004.5
20260507184526 49 248 0.0 0.0 0.00 0.30 0.05 91 1004.3
20260507184007 49 248 0.0 0.0 0.00 0.30 0.05 91 1004.3
20260507183457 49 270 0.0 0.0 0.00 0.30 0.05 91 1004.2
20260507182946 49 248 0.0 0.0 0.00 0.30 0.05 91 1004.3
20260507182449 50 158 0.0 0.0 0.00 0.30 0.05 91 1004.0
20260507181930 49 203 0.0 0.0 0.00 0.30 0.05 91 1003.9
20260507180905 50 225 0.0 0.0 0.00 0.30 0.05 91 1004.0
20260507180355 50 203 0.0 0.0 0.00 0.30 0.05 91 1003.9
20260507175845 51 225 0.0 0.0 0.00 0.30 0.05 91 1003.8
20260507175337 51 203 0.0 0.0 0.00 0.30 0.05 90 1003.5
20260507174825 51 293 0.0 0.0 0.00 0.30 0.05 90 1003.4
20260507174315 51 158 0.0 0.0 0.00 0.30 0.05 90 1003.5
20260507173804 51 248 0.0 0.0 0.00 0.30 0.05 90 1003.3
20260507173257 51 270 0.0 0.0 0.00 0.30 0.05 90 1003.5
20260507172746 51 270 0.0 0.0 0.00 0.30 0.05 90 1003.1
20260507172235 51 293 0.0 0.0 0.00 0.30 0.05 89 1003.3
20260507171724 51 270 0.0 0.0 0.00 0.30 0.05 88 1003.3
20260507171217 52 270 0.0 0.0 0.00 0.30 0.05 88 1003.3
20260507170705 52 203 0.0 0.0 0.00 0.30 0.05 89 1003.5
20260507170154 51 248 0.0 0.0 0.00 0.30 0.05 89 1003.0
20260507165643 51 135 0.0 0.0 0.00 0.30 0.05 90 1003.2